Location: *
(24.1434°N, 56.8729°E)
Time: 07:24:47
(UTC+00:00)

CSL-04 Debris - Pass Details

Date: 09 April 2020
Orbit: 826 x 849 km, 98.9° (Epoch: 25 May)

Event Time Altitude Azimuth Distance (km) Brightness Sun altitude
Rises 15:09:43 0° 166° (SSE) 3,396 7.1 -9.3°
Reaches altitude 10° 15:12:04 10° 166° (SSE) 2,462 6.4 -9.8°
Maximum altitude 15:17:33 89° 254° (WSW) 849 4.2 -11.0°
Drops below altitude 10° 15:23:02 10° 347° (NNW) 2,461 7.0 -12.2°
Sets 15:25:23 0° 348° (NNW) 3,395 7.7 -12.8°
